EW6500 Weather Reports


time (UTC)temp
F
wind
direction
speed
knots
gust
knots
rain 1hr
in
rain 24hr
in
rain mn
in
humidity
%
barometer
mb
20260510060002 73 339 0.9 7.8 0.00 0.00 0.00 45 1023.3
20260510054559 72 355 1.7 7.0 0.00 0.00 0.00 44 1023.5
20260510053057 72 346 3.5 8.7 0.00 0.00 0.00 45 1023.7
20260510051557 71 331 0.9 9.6 0.00 0.00 0.00 48 1023.8
20260510050055 71 325 2.6 7.0 0.00 0.00 0.00 46 1023.8
20260510044605 71 38 2.6 7.0 0.00 0.00 0.00 45 1024.0
20260510043044 70 345 1.7 7.8 0.00 0.00 0.00 46 1024.3
20260510041540 69 317 3.5 12.2 0.00 0.00 0.00 48 1024.6
20260510040036 69 336 2.6 8.7 0.00 0.00 0.00 48 1024.8
20260510034534 69 333 2.6 7.8 0.00 0.00 0.00 51 1025.1
20260510033031 67 341 3.5 11.3 0.00 0.00 0.00 50 1025.4
20260510031529 67 10 1.7 7.8 0.00 0.00 0.00 53 1025.5
20260510030035 66 338 3.5 8.7 0.00 0.00 0.00 53 1025.7
20260510024526 67 341 1.7 7.0 0.00 0.00 0.00 54 1025.8
20260510023022 65 337 0.9 4.3 0.00 0.00 0.00 59 1025.9
20260510021524 65 9 0.9 2.6 0.00 0.00 0.00 58 1026.2
20260510020018 64 17 0.9 2.6 0.00 0.00 0.00 59 1026.3
20260510014514 63 5 0.0 2.6 0.00 0.00 0.00 62 1026.3
20260510013013 61 360 0.9 2.6 0.00 0.00 0.00 64 1026.4
20260510011510 60 360 0.9 3.5 0.00 0.00 0.00 65 1026.6
20260510010002 57 61 0.0 0.9 0.00 0.00 0.00 71 1026.8
20260510004609 54 61 0.0 2.6 0.00 0.00 0.00 74 1026.9
20260510003059 54 62 0.0 0.9 0.00 0.00 0.00 74 1026.8
20260510001558 52 62 0.0 1.7 0.00 0.00 0.00 77 1026.8
20260510000050 50 71 0.9 4.3 0.00 0.00 0.00 76 1026.8
20260509234555 49 55 0.0 3.5 0.00 0.00 0.00 78 1026.6
20260509233044 49 54 0.0 1.7 0.00 0.00 0.00 77 1026.4
20260509231544 49 54 0.9 2.6 0.00 0.00 0.00 77 1026.3
20260509230045 49 61 0.9 2.6 0.00 0.00 0.00 77 1026.2
20260509224543 48 62 0.0 3.5 0.00 0.00 0.00 77 1026.3
20260509223044 48 53 0.9 2.6 0.00 0.00 0.00 77 1026.4
20260509221540 49 44 0.9 3.5 0.00 0.00 0.00 76 1026.3
20260509220040 49 69 1.7 3.5 0.00 0.00 0.00 76 1026.2
20260509214539 48 75 0.9 2.6 0.00 0.00 0.00 77 1026.2
20260509213035 48 80 0.0 0.0 0.00 0.00 0.00 77 1026.1
20260509211541 48 80 1.7 4.3 0.00 0.00 0.00 78 1025.8
20260509210032 47 59 0.0 1.7 0.00 0.00 0.00 79 1025.9
20260509204531 47 59 0.0 0.9 0.00 0.00 0.00 78 1025.8
20260509203032 47 59 0.0 0.0 0.00 0.00 0.00 79 1025.6
20260509201530 47 59 0.0 0.0 0.00 0.00 0.00 79 1025.8
20260509200028 46 59 0.0 0.0 0.00 0.00 0.00 79 1025.6
20260509194530 46 59 0.0 0.9 0.00 0.00 0.00 79 1025.5
20260509193030 46 59 0.0 0.0 0.00 0.00 0.00 79 1025.5
20260509191529 46 59 0.0 0.0 0.00 0.00 0.00 80 1025.4
20260509190025 46 59 0.0 0.0 0.00 0.00 0.00 81 1025.5
20260509184531 46 59 0.0 0.0 0.00 0.00 0.00 81 1025.5
20260509183023 45 59 0.0 0.0 0.00 0.00 0.00 84 1025.6
20260509181522 44 59 0.0 0.9 0.00 0.00 0.00 86 1025.6
20260509180020 44 59 0.0 2.6 0.00 0.00 0.00 85 1025.7
20260509174517 45 58 1.7 2.6 0.00 0.00 0.00 81 1025.6
20260509173013 47 58 0.0 0.0 0.00 0.00 0.00 78 1025.5
20260509171511 47 58 0.0 0.0 0.00 0.00 0.00 77 1025.6
20260509170009 47 58 0.0 0.0 0.00 0.00 0.00 78 1025.7
20260509164508 47 58 0.0 0.0 0.00 0.00 0.00 78 1025.9
20260509163008 48 58 0.0 0.0 0.00 0.00 0.00 79 1025.8
20260509161504 48 58 0.0 0.0 0.00 0.00 0.00 79 1025.9
20260509160002 48 58 0.0 0.0 0.00 0.00 0.00 79 1025.9
20260509154502 48 58 0.0 0.0 0.00 0.00 0.00 80 1025.9
20260509153003 48 58 0.0 0.0 0.00 0.00 0.00 79 1026.0
20260509151501 48 58 0.0 0.0 0.00 0.00 0.00 80 1026.2
20260509150100 49 58 0.0 0.0 0.00 0.00 0.00 79 1026.3
20260509144605 49 58 0.0 0.0 0.00 0.00 0.00 77 1026.2
20260509143100 50 58 0.0 0.0 0.00 0.00 0.00 74 1026.4
20260509141559 50 58 0.0 0.0 0.00 0.00 0.00 74 1026.3
20260509140058 51 58 0.0 0.0 0.00 0.00 0.00 72 1026.4
20260509134556 52 58 0.0 0.0 0.00 0.00 0.00 72 1026.3
20260509133103 52 58 0.0 0.0 0.00 0.00 0.00 71 1026.2
20260509131601 52 58 0.0 0.0 0.00 0.00 0.00 71 1026.2
20260509124556 54 58 0.0 0.0 0.00 0.00 0.00 66 1026.0
20260509123055 55 58 0.0 0.0 0.00 0.00 0.00 64 1025.8
20260509121554 56 58 0.0 0.0 0.00 0.00 0.00 60 1025.8
20260509120058 57 58 0.0 1.7 0.00 0.00 0.00 59 1025.8
20260509114554 58 58 0.0 0.9 0.00 0.00 0.00 58 1025.9
20260509113052 59 58 0.0 0.9 0.00 0.00 0.00 56 1025.8
20260509111553 59 58 0.0 0.0 0.00 0.00 0.00 55 1025.9
20260509110051 60 58 0.0 0.9 0.00 0.00 0.00 53 1025.8
20260509104551 60 58 0.0 0.9 0.00 0.00 0.00 53 1025.8
20260509103051 61 58 0.0 0.9 0.00 0.00 0.00 51 1025.7
20260509101551 62 58 0.0 1.7 0.00 0.00 0.00 50 1025.6
20260509100050 63 58 0.0 0.0 0.00 0.00 0.00 49 1025.4
20260509094549 64 58 0.0 1.7 0.00 0.00 0.00 47 1025.2
20260509093049 65 62 0.9 2.6 0.00 0.00 0.00 47 1025.1
20260509091549 66 61 0.9 3.5 0.00 0.00 0.00 44 1025.1
20260509090048 66 59 0.9 1.7 0.00 0.00 0.00 44 1025.1
20260509084547 67 51 0.9 3.5 0.00 0.00 0.00 43 1025.0
20260509083046 68 55 0.9 3.5 0.00 0.00 0.00 42 1025.0
20260509081551 70 58 0.9 4.3 0.00 0.00 0.00 41 1025.1
20260509080046 71 61 0.9 4.3 0.00 0.00 0.00 38 1025.0
20260509074544 72 35 0.9 3.5 0.00 0.00 0.00 39 1025.0
20260509073043 71 360 1.7 4.3 0.00 0.00 0.00 39 1025.1
20260509071543 72 67 1.7 5.2 0.00 0.00 0.00 39 1025.1
20260509070040 71 74 1.7 5.2 0.00 0.00 0.00 41 1024.9
20260509064538 70 355 1.7 7.0 0.00 0.00 0.00 41 1024.9
20260509063036 70 72 2.6 7.8 0.00 0.00 0.00 38 1024.7
20260509061538 70 77 0.9 7.0 0.00 0.00 0.00 43 1024.8